YAOGAN-10

Last updated on Thu Oct 30 2025 00:02:31 GMT+0000 (Coordinated Universal Time)

1 36834U 10038A 25302.57600403 .00000973 00000+0 12202-3 0 9991 2 36834 97.9190 322.7212 0001568 94.5417 63.4702 14.84463064822981
UTC large
Height (km)
Speed (km/s)
/
Latitude / Longitude
Inclination (degrees)
Orbital Period (minutes)
Azimuth
Elevation
Range (km)
Doppler Factor

Next 0 passes for location: London (51.5072 / 0.1276)

Sorry there are no passes over London.